EW3099 Weather Reports


time (UTC)temp
C
wind
direction
speed
KPH
gust
KPH
rain 1hr
cm
rain 24hr
cm
rain mn
cm
humidity
%
barometer
mb
20260504081522 5 321 0.0 0.0 0.00 0.00 0.00 56 1010.8
20260504080116 5 321 0.0 0.0 0.00 0.00 0.00 56 1010.8
20260504050010 2 322 0.0 0.0 0.00 0.00 0.00 63 1010.3
20260504044558 2 322 0.0 0.0 0.00 0.00 0.00 62 1010.3
20260504043052 2 322 0.0 0.0 0.00 0.00 0.00 61 1010.3
20260504041529 3 322 0.0 0.0 0.00 0.00 0.00 60 1010.3
20260504040028 3 322 0.0 0.0 0.00 0.00 0.00 60 1010.2
20260504034509 3 322 0.0 0.0 0.00 0.00 0.00 58 1010.3
20260504033007 3 322 0.0 0.0 0.00 0.00 0.00 58 1010.2
20260504031548 4 322 0.0 0.0 0.00 0.00 0.00 56 1010.1
20260504030049 5 322 0.0 0.0 0.00 0.00 0.00 54 1010.0
20260504024529 5 322 0.0 0.0 0.00 0.00 0.00 51 1010.1
20260504023030 5 322 0.0 0.0 0.00 0.00 0.00 50 1010.2
20260504021510 6 322 0.0 0.0 0.00 0.00 0.00 48 1010.2
20260504020009 6 321 0.0 0.0 0.00 0.00 0.00 46 1010.0
20260504014552 7 321 0.0 0.0 0.00 0.00 0.00 44 1010.1
20260504013104 7 321 0.0 0.0 0.00 0.00 0.00 41 1009.9
20260504011531 8 321 0.0 0.0 0.00 0.00 0.00 34 1009.8
20260504010029 9 321 0.0 0.0 0.00 0.00 0.00 32 1009.5
20260504004512 10 321 0.0 0.0 0.00 0.00 0.00 31 1009.2
20260504003023 10 321 0.0 0.0 0.00 0.00 0.00 28 1009.1
20260504001601 11 321 0.0 0.0 0.00 0.00 0.00 25 1008.9
20260504000052 11 332 0.0 1.6 0.00 0.00 0.00 22 1008.7
20260503234541 12 358 0.0 1.6 0.00 0.00 0.00 22 1008.4
20260503233033 12 329 0.0 3.2 0.00 0.00 0.00 21 1008.1
20260503231516 12 24 0.0 4.8 0.00 0.00 0.00 20 1008.1
20260503230016 12 334 0.0 12.9 0.00 0.00 0.00 19 1007.9
20260503224557 12 337 0.0 6.4 0.00 0.00 0.00 20 1007.8
20260503223059 12 326 3.2 11.3 0.00 0.00 0.00 20 1007.8
20260503221545 12 356 1.6 9.7 0.00 0.00 0.00 21 1007.7
20260503220044 12 349 3.2 8.0 0.00 0.00 0.00 20 1007.7
20260503214543 12 32 1.6 12.9 0.00 0.00 0.00 22 1007.8
20260503213059 12 22 3.2 12.9 0.00 0.00 0.00 22 1007.6
20260503211541 12 3 0.0 11.3 0.00 0.00 0.00 24 1007.6
20260503210053 12 38 3.2 8.0 0.00 0.00 0.00 24 1007.8
20260503204548 12 4 3.2 9.7 0.00 0.00 0.00 23 1007.7
20260503203037 12 319 1.6 8.0 0.00 0.00 0.00 24 1007.7
20260503201518 12 357 3.2 9.7 0.00 0.00 0.00 24 1007.7
20260503200018 12 308 1.6 11.3 0.00 0.00 0.00 25 1007.8
20260503194559 12 19 1.6 17.7 0.00 0.00 0.00 27 1007.8
20260503193101 11 334 6.4 16.1 0.00 0.00 0.00 26 1007.9
20260503191542 11 19 3.2 12.9 0.00 0.00 0.00 28 1008.1
20260503190041 12 336 3.2 12.9 0.00 0.00 0.00 26 1008.1
20260503184534 12 16 1.6 8.0 0.00 0.00 0.00 27 1008.0
20260503183020 11 351 3.2 25.7 0.00 0.00 0.00 26 1008.1
20260503181504 10 342 6.4 19.3 0.00 0.00 0.00 26 1008.1
20260503180007 11 49 1.6 29.0 0.00 0.00 0.00 26 1008.0
20260503174544 11 345 6.4 11.3 0.00 0.00 0.00 25 1008.0
20260503173109 11 356 1.6 14.5 0.00 0.00 0.00 26 1008.0
20260503171531 10 155 1.6 14.5 0.00 0.00 0.00 26 1008.0